Date String (YYYY-MM-DD hh:mm:ss) UTC,Instrument flags,Ambient pressure (hPa),Sample flow (lpm),Bypass flow (lpm),Sample temperature (°C),Ambient temperature (°C),ASC tube jacket temperature (°C),LED temperature (°C),Box temperature (°C),Sample RH (%),Span deviation,Mass concentration (μg/m³),Mass concentration (μg/m³),Mass concentration (μg/m³)
DateTimeUTC,F1_M11,P_M11,Q1_M11,Q2_M11,T1_M11,T2_M11,T3_M11,T4_M11,T5_M11,U1_M11,ZSPAN_M11,X0_M11,X2_M11,X1_M11
2023-02-25 16:00:00,,0824.4,4.99,0.00,22.2,20.7,00.0,30.9,23.9,12.3,0000.0,0002.11,0000.60,0000.40
2023-02-25 16:01:00,,0824.5,4.99,0.00,22.2,20.7,00.0,30.9,23.9,11.9,0000.0,0002.01,0000.57,0000.40
2023-02-25 16:02:00,,0824.5,4.97,0.00,22.2,20.7,00.0,30.9,23.8,11.9,0000.0,0001.47,0000.56,0000.41
2023-02-25 16:03:00,,0824.7,4.98,0.00,22.2,20.7,00.0,30.9,23.8,12.0,0000.0,0000.99,0000.57,0000.41
2023-02-25 16:04:00,,0824.5,4.98,0.00,22.1,20.6,00.0,30.9,23.8,12.5,0000.0,0001.09,0000.60,0000.41
2023-02-25 16:05:00,,0824.5,5.02,0.00,22.1,20.6,00.0,30.9,23.8,12.5,0000.0,0001.04,0000.59,0000.41
2023-02-25 16:06:00,,0824.5,4.99,0.00,22.1,20.6,00.0,30.9,23.8,12.3,0000.0,0001.00,0000.59,0000.41
2023-02-25 16:07:00,,0824.5,5.00,0.00,22.1,20.6,00.0,30.9,23.8,12.4,0000.0,0001.00,0000.58,0000.41
2023-02-25 16:08:00,,0824.4,5.00,0.00,22.1,20.6,00.0,30.9,23.8,12.7,0000.0,0001.01,0000.58,0000.41
2023-02-25 16:09:00,,0824.5,5.01,0.00,22.1,20.6,00.0,30.9,23.8,13.0,0000.0,0000.95,0000.56,0000.40
2023-02-25 16:10:00,,0824.6,5.01,0.00,22.1,20.5,00.0,30.9,23.8,13.0,0000.0,0001.01,0000.58,0000.40
2023-02-25 16:11:00,,0824.4,4.99,0.00,22.1,20.5,00.0,30.9,23.8,13.2,0000.0,0000.99,0000.58,0000.40
2023-02-25 16:12:00,,0824.6,4.99,0.00,22.1,20.5,00.0,30.9,23.8,13.2,0000.0,0001.06,0000.61,0000.40
2023-02-25 16:13:00,,0824.4,4.97,0.00,22.1,20.5,00.0,30.8,23.8,13.0,0000.0,0001.16,0000.65,0000.39
2023-02-25 16:14:00,,0824.4,4.97,0.00,22.0,20.5,00.0,30.8,23.7,12.4,0000.0,0001.25,0000.67,0000.40
2023-02-25 16:15:00,,0824.4,5.00,0.00,22.0,20.5,00.0,30.8,23.7,12.7,0000.0,0001.24,0000.67,0000.40
2023-02-25 16:16:00,,0824.4,5.02,0.00,22.0,20.5,00.0,30.8,23.7,12.5,0000.0,0001.16,0000.64,0000.40
2023-02-25 16:17:00,,0824.5,5.00,0.00,22.0,20.5,00.0,30.8,23.7,12.6,0000.0,0001.14,0000.63,0000.39
2023-02-25 16:18:00,,0824.4,5.00,0.00,22.0,20.5,00.0,30.8,23.7,12.4,0000.0,0001.09,0000.62,0000.40
2023-02-25 16:19:00,,0824.7,4.99,0.00,22.0,20.6,00.0,30.8,23.7,12.4,0000.0,0001.12,0000.62,0000.40
2023-02-25 16:20:00,,0824.6,4.94,0.00,22.1,22.0,00.0,30.8,24.0,12.2,0000.0,0001.20,0000.64,0000.40
2023-02-25 16:21:00,,0824.5,4.94,0.00,22.2,23.4,00.0,30.8,24.4,12.5,0000.0,0001.18,0000.63,0000.40
2023-02-25 16:22:00,,0824.6,4.95,0.00,22.4,23.2,00.0,30.9,24.5,12.4,0000.0,0001.27,0000.65,0000.40
2023-02-25 16:23:00,,0824.6,4.98,0.00,22.4,22.7,00.0,30.9,24.4,12.6,0000.0,0001.53,0000.65,0000.40
2023-02-25 16:24:00,,0824.4,5.00,0.00,22.4,22.2,00.0,31.0,24.3,11.9,0000.0,0001.65,0000.62,0000.40
2023-02-25 16:25:00,,0824.5,4.99,0.00,22.4,21.9,00.0,31.0,24.2,12.3,0000.0,0001.74,0000.61,0000.40
2023-02-25 16:26:00,,0824.4,4.99,0.00,22.4,21.6,00.0,31.0,24.2,12.5,0000.0,0001.80,0000.60,0000.40
2023-02-25 16:27:00,,0824.4,4.99,0.00,22.4,21.5,00.0,31.0,24.1,11.9,0000.0,0001.84,0000.62,0000.39
2023-02-25 16:28:00,,0824.4,5.00,0.00,22.4,21.3,00.0,31.0,24.1,11.6,0000.0,0002.29,0000.64,0000.39
2023-02-25 16:29:00,,0824.4,5.00,0.00,22.4,21.2,00.0,31.0,24.1,11.7,0000.0,0002.32,0000.64,0000.39
2023-02-25 16:30:00,,0824.5,4.96,0.00,22.4,21.2,00.0,31.1,24.1,12.4,0000.0,0002.26,0000.62,0000.38
2023-02-25 16:31:00,,0824.4,5.04,0.00,22.4,21.1,00.0,31.1,24.1,12.8,0000.0,0002.21,0000.61,0000.38
2023-02-25 16:32:00,,0824.5,4.99,0.00,22.4,21.0,00.0,31.1,24.1,12.5,0000.0,0002.24,0000.63,0000.38
2023-02-25 16:33:00,,0824.5,5.00,0.00,22.4,21.0,00.0,31.1,24.1,12.1,0000.0,0002.21,0000.62,0000.38
2023-02-25 16:34:00,,0824.4,5.00,0.00,22.4,21.0,00.0,31.1,24.1,12.3,0000.0,0002.13,0000.59,0000.38
2023-02-25 16:35:00,,0824.3,4.97,0.00,22.3,20.9,00.0,31.1,24.0,12.2,0000.0,0001.88,0000.61,0000.39
2023-02-25 16:36:00,,0824.4,4.98,0.00,22.3,20.9,00.0,31.1,24.1,12.3,0000.0,0001.76,0000.63,0000.39
2023-02-25 16:37:00,,0824.4,4.99,0.00,22.3,20.9,00.0,31.1,24.1,12.7,0000.0,0001.60,0000.62,0000.40
2023-02-25 16:38:00,,0824.4,4.99,0.00,22.3,20.9,00.0,31.1,24.0,12.9,0000.0,0001.53,0000.63,0000.40
2023-02-25 16:39:00,,0824.3,5.01,0.00,22.3,20.8,00.0,31.1,24.0,12.3,0000.0,0001.45,0000.60,0000.40
2023-02-25 16:40:00,,0824.4,5.00,0.00,22.3,20.8,00.0,31.0,24.0,12.3,0000.0,0001.02,0000.59,0000.39
2023-02-25 16:41:00,,0824.3,5.00,0.00,22.3,20.8,00.0,31.0,24.0,12.8,0000.0,0001.10,0000.63,0000.40
2023-02-25 16:42:00,,0824.2,5.00,0.00,22.2,20.8,00.0,31.0,23.9,12.9,0000.0,0001.14,0000.64,0000.41
2023-02-25 16:43:00,,0824.2,5.01,0.00,22.2,20.8,00.0,31.0,23.9,12.2,0000.0,0001.12,0000.64,0000.41
2023-02-25 16:44:00,,0824.2,5.00,0.00,22.2,20.7,00.0,31.0,23.9,12.5,0000.0,0001.09,0000.63,0000.41
2023-02-25 16:45:00,,0824.2,5.00,0.00,22.2,20.7,00.0,31.0,23.9,12.8,0000.0,0001.14,0000.64,0000.41
2023-02-25 16:46:00,,0824.1,5.00,0.00,22.2,20.7,00.0,31.0,23.9,12.7,0000.0,0001.04,0000.60,0000.40
2023-02-25 16:47:00,,0824.1,4.99,0.00,22.2,20.7,00.0,31.0,23.9,12.4,0000.0,0000.99,0000.58,0000.40
2023-02-25 16:48:00,,0824.1,5.00,0.00,22.2,20.7,00.0,31.0,23.9,12.7,0000.0,0000.97,0000.57,0000.39
2023-02-25 16:49:00,,0824.2,5.00,0.00,22.2,20.7,00.0,31.0,23.9,12.2,0000.0,0001.56,0000.61,0000.38
2023-02-25 16:50:00,,0824.2,5.01,0.00,22.2,20.7,00.0,31.0,23.9,12.2,0000.0,0002.11,0000.64,0000.38
2023-02-25 16:51:00,,0824.2,5.01,0.00,22.2,20.7,00.0,31.0,23.9,12.5,0000.0,0002.21,0000.67,0000.39
2023-02-25 16:52:00,,0824.2,4.98,0.00,22.2,20.6,00.0,30.9,23.9,12.7,0000.0,0002.24,0000.66,0000.39
2023-02-25 16:53:00,,0824.2,5.00,0.00,22.1,20.6,00.0,30.9,23.8,13.0,0000.0,0002.15,0000.64,0000.38
2023-02-25 16:54:00,,0824.2,5.00,0.00,22.1,20.6,00.0,30.9,23.8,12.6,0000.0,0002.18,0000.65,0000.38
2023-02-25 16:55:00,,0824.2,5.00,0.00,22.1,20.6,00.0,30.9,23.8,12.9,0000.0,0002.20,0000.66,0000.38
2023-02-25 16:56:00,,0824.1,4.98,0.00,22.1,20.6,00.0,30.9,23.8,13.1,0000.0,0002.23,0000.66,0000.38
2023-02-25 16:57:00,,0824.2,4.98,0.00,22.1,21.5,00.0,30.9,24.0,12.4,0000.0,0002.52,0000.69,0000.39
2023-02-25 16:58:00,,0824.2,4.97,0.00,22.3,23.2,00.0,30.9,24.4,12.3,0000.0,0003.78,0000.72,0000.40
2023-02-25 16:59:00,,0824.2,5.00,0.00,22.4,23.6,00.0,30.9,24.6,12.3,0000.0,0003.80,0000.71,0000.40
